[[{"header":{"parameterUnit":"m.s-1","parameterCategory":1,"la1":30.2991,"la2":30.254,"lo1":-89.0895,"lo2":-89.0444,"dy":0.0017,"dx":0.0017,"nx":28,"ny":28,"refTime":"2025-04-27T09:00:00:Z","depth":0,"parameterNumber":2,"parameterNumberName":"U-component_of_WINDS"},"data":[0,0,0,0,0,0,0,0,0,0,0,0,0,0,0,0,0,0,0,0,0,0,0,0,0,0,0,0,0,0,0,0,0,0,0,0,0,0,0,0,0,0,0,0,0,0,0,0,0,0,0,0,0,0,0,0,0,0,0.5308,0.5309,0,0.54,0.5401,0.5402,0.5412,0.5411,0.541,0.5409,0.5504,0.5508,0.5511,0,0,0,0,0,0,0,0,0,0,0,0,0,0.5139,0.5142,0.5307,0.5309,0.531,0.54,0.5401,0.5402,0.5412,0.5411,0.5409,0.5408,0.5503,0.5507,0.5511,0,0,0,0,0,0,0,0,0,0,0,0,0,0.522,0.5143,0.5307,0.5325,0.5328,0.54,0.5401,0.5403,0.5412,0.5411,0.5409,0.5408,0.5502,0.5507,0.5512,0.5572,0,0,0.5528,0.553,0,0,0,0,0,0,0,0,0.5216,0.5226,0.5322,0.5324,0.5327,0.5393,0.5377,0.546,0.5412,0.538,0.5409,0.5407,0.5468,0.5476,0.5497,0.5577,0.5581,0.5528,0.5531,0.5533,0.5535,0,0,0,0,0,0,0,0.521,0.5222,0.5344,0.5323,0.5326,0.5329,0.5339,0.5393,0.5431,0.5383,0.5384,0.5394,0.547,0.5492,0.5499,0.5582,0.5528,0.5533,0.5536,0.5538,0.5715,0.5717,0,0,0,0,0,0,0.5201,0.5218,0.5341,0.5347,0.5267,0.5333,0.5344,0.5373,0.5431,0.5438,0.5396,0.5395,0.5484,0.5493,0.5502,0.5576,0.5533,0.5538,0.5541,0.5714,0.5716,0.5718,0,0,0,0,0,0,0.5197,0.5212,0.5337,0.5283,0.5299,0.5337,0.537,0.5376,0.5398,0.544,0.5447,0.5411,0.5483,0.5495,0.5555,0.5579,0.5541,0.5545,0.5712,0.5714,0.5717,0.5724,0,0,0,0,0,0,0.5192,0.521,0.5234,0.5283,0.5302,0.5388,0.5372,0.5379,0.5406,0.5406,0.5457,0.5464,0.5483,0.5547,0.556,0.5586,0.5549,0.571,0.5713,0.5716,0.5722,0.5726,0.573,0,0,0,0,0,0.5186,0.5233,0.5235,0.525,0.5332,0.5389,0.54,0.5421,0.5408,0.5432,0.5459,0.5462,0.5575,0.5553,0.5567,0.5595,0.5708,0.5712,0.5716,0.572,0.5726,0.573,0,0,0,0,0,0,0.5186,0.5239,0.5243,0.5306,0.5343,0.5391,0.5421,0.5426,0.5468,0.5466,0.549,0.5502,0.556,0.5584,0.5558,0.5656,0.564,0.5647,0.5638,0.5644,0.5649,0.5641,0.5554,0,0,0,0,0,0.5193,0.5235,0.528,0.5332,0.535,0.5382,0.5408,0.5421,0.5461,0.5476,0.5508,0.5546,0.559,0.5619,0.5662,0.5725,0.5736,0.5752,0.5756,0.576,0.5765,0.58,0.5807,0.573,0.573,0.573,0,0,0.5208,0.5243,0.5268,0.5332,0.5362,0.5406,0.5396,0.5442,0.5474,0.5484,0.5541,0.5566,0.561,0.5671,0.57,0.5693,0.5789,0.5764,0.5767,0.577,0.5804,0.5811,0.5818,0.5732,0.5732,0.5731,0,0,0.5258,0.5289,0.5335,0.5365,0.541,0.5432,0.5443,0.549,0.5506,0.5564,0.5572,0.5611,0.5686,0.5717,0.5743,0.5804,0.5807,0.5817,0.584,0.5873,0.5879,0.5885,0.5905,0.5913,0.5822,0.5822,0.5822,0,0.5271,0.5337,0.5358,0.5404,0.5431,0.5441,0.5488,0.5516,0.5574,0.5593,0.5584,0.5678,0.5709,0.5777,0.5792,0.5813,0.5826,0.5811,0.5876,0.5882,0.5888,0.5908,0.5916,0.5823,0.5823,0.5823,0.5823,0,0.535,0.5395,0.5427,0.5481,0.5513,0.5559,0.5587,0.5616,0.5626,0.5648,0.5707,0.5744,0.5794,0.5811,0.5822,0.5881,0.5875,0.5871,0.5856,0.5895,0.5915,0.5923,0.5824,0.5824,0.5824,0.5824,0,0,0.5402,0.5467,0.5478,0.5503,0.5554,0.5589,0.5635,0.5684,0.5708,0.5747,0.5786,0.5849,0.5846,0.5875,0.5889,0.5919,0.5963,0.5911,0.5912,0.5919,0.603,0.6032,0.604,0.5966,0.5968,0.5969,0.6026,0,0.5457,0.5539,0.5559,0.563,0.5671,0.5681,0.5721,0.5757,0.5779,0.5817,0.5841,0.5885,0.5878,0.5895,0.5925,0.5951,0.5986,0.5948,0.6002,0.6004,0.599,0.6051,0.6053,0.6105,0.6033,0.6035,0.6036,0,0.5532,0.5572,0.5646,0.5691,0.5709,0.5745,0.579,0.5827,0.5867,0.5881,0.5913,0.5924,0.5972,0.5954,0.6021,0.5995,0.6018,0.6035,0.6037,0.6043,0.6022,0.6057,0.6122,0.6129,0.6048,0.6047,0.6046,0,0.5561,0.5634,0.5687,0.5708,0.5762,0.5786,0.581,0.5849,0.5876,0.5916,0.5934,0.598,0.6005,0.6039,0.6062,0.6047,0.6127,0.6111,0.6139,0.6139,0.6155,0.6153,0.6224,0.6172,0.6171,0.6171,0.6171,0,0.5619,0.5664,0.5701,0.5734,0.5784,0.5807,0.5856,0.588,0.5914,0.5951,0.5963,0.5998,0.6027,0.6066,0.6084,0.6136,0.6147,0.616,0.6164,0.6158,0.6156,0.6173,0.617,0.6173,0.6173,0.6172,0.6172,0,0.566,0.5687,0.5745,0.5791,0.5804,0.5839,0.5878,0.591,0.5932,0.5979,0.5992,0.6026,0.6072,0.6099,0.6157,0.617,0.6227,0.623,0.6213,0.6215,0.6241,0.6238,0.6324,0.6337,0.6277,0.6277,0.6278,0,0.5695,0.573,0.5779,0.5805,0.5829,0.587,0.5898,0.5922,0.5951,0.5999,0.6025,0.6072,0.6111,0.6184,0.6214,0.6259,0.6263,0.629,0.627,0.6262,0.6262,0.6259,0.6263,0.6293,0.6294,0.6294,0.6294,0,0.5755,0.5766,0.5806,0.585,0.5883,0.5919,0.5955,0.5976,0.6005,0.6037,0.6084,0.6114,0.6173,0.622,0.6267,0.6291,0.6298,0.6301,0.6309,0.6304,0.6292,0.6298,0.6222,0.6299,0.6298,0.6298,0.6298,0.6297,0.5793,0.5824,0.5863,0.5907,0.5936,0.5969,0.6002,0.6027,0.6067,0.6117,0.6129,0.6178,0.6217,0.6281,0.6306,0.6345,0.634,0.6353,0.6356,0.6359,0.6359,0.6286,0.6354,0.6354,0.6354,0.6354,0.6354,0,0.5852,0.5878,0.5918,0.5967,0.6002,0.6005,0.6045,0.6073,0.6116,0.6152,0.619,0.6243,0.6288,0.6322,0.6368,0.6392,0.6396,0.6403,0.6401,0.6407,0.6361,0.6349,0.6399,0.6399,0.6399,0.6399,0.6399,0.6399,0.5886,0.5938,0.5954,0.6021,0.6046,0.6094,0.6117,0.6147,0.6176,0.6235,0.6272,0.6294,0.6329,0.6377,0.6418,0.6427,0.6443,0.6449,0.6458,0.6415,0.641,0.6405,0.6394,0.6453,0.6453,0.65,0.6501,0.6501]},{"header":{"parameterUnit":"m.s-1","parameterCategory":1,"la1":30.2991,"la2":30.254,"lo1":-89.0895,"lo2":-89.0444,"dy":0.0017,"dx":0.0017,"nx":28,"ny":28,"refTime":"2025-04-27T09:00:00:Z","depth":0,"parameterNumber":3,"parameterNumberName":"V-component_of_WINDS"},"data":[0,0,0,0,0,0,0,0,0,0,0,0,0,0,0,0,0,0,0,0,0,0,0,0,0,0,0,0,0,0,0,0,0,0,0,0,0,0,0,0,0,0,0,0,0,0,0,0,0,0,0,0,0,0,0,0,0,0,2.6652,2.6652,0,2.6584,2.6583,2.6582,2.6493,2.6492,2.649,2.6489,2.6419,2.6418,2.6418,0,0,0,0,0,0,0,0,0,0,0,0,0,2.6706,2.6706,2.6652,2.6652,2.6651,2.6584,2.6583,2.6582,2.6494,2.6492,2.649,2.6488,2.6419,2.6418,2.6418,0,0,0,0,0,0,0,0,0,0,0,0,0,2.6665,2.6706,2.6653,2.6599,2.6593,2.6584,2.6583,2.6582,2.6494,2.6492,2.649,2.6488,2.6419,2.6419,2.6418,2.6456,0,0,2.6415,2.6415,0,0,0,0,0,0,0,0,2.6667,2.6663,2.6607,2.6602,2.6596,2.6545,2.6576,2.654,2.6495,2.6532,2.6489,2.6487,2.6463,2.6458,2.645,2.6453,2.645,2.6415,2.6415,2.6415,2.6414,0,0,0,0,0,0,0,2.667,2.6665,2.6625,2.6607,2.66,2.6577,2.6569,2.6569,2.651,2.6528,2.6522,2.6515,2.6459,2.6451,2.6448,2.6449,2.6415,2.6415,2.6414,2.6414,2.6478,2.648,0,0,0,0,0,0,2.6681,2.6668,2.6627,2.6623,2.6627,2.6578,2.6569,2.6563,2.651,2.65,2.6517,2.6511,2.6453,2.6449,2.6445,2.6485,2.6415,2.6414,2.6413,2.6476,2.6479,2.6481,0,0,0,0,0,0,2.6683,2.6678,2.663,2.6644,2.6636,2.658,2.6574,2.6563,2.6555,2.6501,2.649,2.6519,2.6451,2.6446,2.6454,2.6482,2.6413,2.6413,2.6473,2.6477,2.648,2.6567,0,0,0,0,0,0,2.6685,2.668,2.6694,2.6645,2.6636,2.6641,2.6576,2.6563,2.6554,2.6546,2.6501,2.6491,2.6449,2.6455,2.6453,2.6479,2.6412,2.6471,2.6475,2.6479,2.6562,2.6573,2.6583,0,0,0,0,0,2.6687,2.6722,2.6695,2.6691,2.6652,2.6643,2.6637,2.6589,2.6557,2.657,2.6535,2.6492,2.6479,2.6457,2.6453,2.648,2.6469,2.6474,2.6478,2.6557,2.6571,2.6583,0,0,0,0,0,0,2.6776,2.6714,2.6684,2.6704,2.6679,2.6628,2.6643,2.6605,2.6589,2.6582,2.6522,2.6513,2.6528,2.6504,2.6481,2.6513,2.6467,2.6472,2.6528,2.6541,2.6552,2.6557,2.6411,0,0,0,0,0,2.6798,2.6795,2.6741,2.6764,2.6753,2.6701,2.6695,2.6659,2.6631,2.662,2.6585,2.656,2.6549,2.6544,2.6531,2.6558,2.6546,2.6574,2.6585,2.6594,2.6598,2.6609,2.6621,2.6497,2.6497,2.6497,0,0,2.6843,2.6809,2.6811,2.6781,2.6758,2.6756,2.6692,2.6693,2.6691,2.662,2.6625,2.6599,2.6566,2.6583,2.6588,2.6564,2.663,2.66,2.6608,2.6607,2.6615,2.6627,2.6638,2.65,2.65,2.6499,0,0,2.6925,2.6899,2.6915,2.6892,2.6857,2.6822,2.6826,2.6779,2.6759,2.6763,2.6709,2.6705,2.6689,2.6668,2.6655,2.6726,2.6686,2.6724,2.678,2.6791,2.6801,2.6809,2.6834,2.6844,2.6729,2.6729,2.6729,0,2.6985,2.698,2.6928,2.6931,2.6919,2.6854,2.6869,2.685,2.6813,2.6806,2.6779,2.6756,2.6729,2.674,2.6757,2.6749,2.6751,2.6729,2.6804,2.6812,2.6818,2.6841,2.6851,2.6734,2.6733,2.6733,2.6732,0,2.7056,2.7054,2.7071,2.7036,2.7026,2.7035,2.6983,2.6979,2.6944,2.6912,2.6916,2.6881,2.686,2.686,2.6826,2.6865,2.6851,2.6815,2.6767,2.6836,2.6857,2.6865,2.6741,2.6739,2.6737,2.6736,0,0,2.7193,2.7128,2.7135,2.7118,2.7074,2.7071,2.7077,2.7056,2.7053,2.7029,2.7032,2.702,2.6985,2.6971,2.6933,2.6944,2.7001,2.6906,2.6904,2.6924,2.7041,2.7068,2.7079,2.6974,2.6976,2.6977,2.7043,0,2.7266,2.7273,2.7225,2.7244,2.724,2.7178,2.7183,2.7156,2.7126,2.7118,2.7084,2.7075,2.7031,2.7022,2.7029,2.6993,2.7024,2.6987,2.6976,2.6976,2.6986,2.709,2.7119,2.7184,2.7051,2.7052,2.7053,0,2.7352,2.7332,2.7352,2.7306,2.7302,2.7308,2.7284,2.7277,2.7245,2.7222,2.7205,2.7162,2.7164,2.7119,2.712,2.7096,2.7088,2.707,2.7071,2.7068,2.7019,2.709,2.7203,2.7213,2.7066,2.7065,2.7064,0,2.7449,2.7427,2.7436,2.7423,2.737,2.7375,2.7353,2.7319,2.7309,2.7288,2.7281,2.726,2.7249,2.7234,2.7187,2.7158,2.7193,2.7144,2.7173,2.7175,2.7184,2.7184,2.7298,2.7179,2.7179,2.7179,2.7179,0,2.7535,2.7549,2.7478,2.7484,2.7497,2.7441,2.7456,2.7428,2.7398,2.7396,2.734,2.734,2.7277,2.7269,2.7232,2.7238,2.7233,2.7214,2.7204,2.7219,2.7222,2.7213,2.7208,2.7182,2.7181,2.718,2.718,0,2.7645,2.7599,2.7604,2.7552,2.754,2.7552,2.7508,2.751,2.7476,2.7474,2.747,2.7416,2.7404,2.7354,2.733,2.7305,2.7323,2.7304,2.7334,2.7328,2.736,2.7357,2.7472,2.7484,2.7359,2.736,2.7361,0,2.7704,2.7713,2.7662,2.7657,2.7638,2.763,2.7619,2.7564,2.7555,2.7519,2.7526,2.7509,2.7492,2.7475,2.7433,2.7414,2.7393,2.7435,2.739,2.7404,2.7393,2.7393,2.7393,2.7445,2.7446,2.7448,2.7449,0,2.7812,2.7788,2.7775,2.7753,2.7742,2.7723,2.77,2.7699,2.7637,2.763,2.7617,2.7604,2.7579,2.7562,2.7536,2.7512,2.747,2.7463,2.7469,2.7484,2.7501,2.7492,2.736,2.7461,2.746,2.7459,2.7458,2.7457,2.7897,2.7902,2.7867,2.7854,2.7831,2.7811,2.781,2.7775,2.7763,2.7739,2.7707,2.7697,2.7663,2.7623,2.7603,2.7594,2.7571,2.7579,2.7581,2.7584,2.7591,2.7503,2.7589,2.7588,2.7588,2.7588,2.7587,0,2.8002,2.7976,2.7965,2.7934,2.7924,2.7885,2.7857,2.7851,2.7844,2.7816,2.78,2.7784,2.7768,2.7724,2.7703,2.7704,2.7684,2.7701,2.77,2.7695,2.7614,2.7611,2.7717,2.7717,2.7717,2.7717,2.7717,2.7717,2.8055,2.8061,2.8033,2.8027,2.8,2.7991,2.7978,2.7959,2.7936,2.7921,2.7907,2.7878,2.7844,2.782,2.7802,2.779,2.7784,2.7807,2.7788,2.7713,2.7701,2.7689,2.7686,2.7806,2.7806,2.787,2.7871,2.7871]}]]